Regional Weather Roundup
Issued by NWS

Home | Current Version | Previous Version | Text Only | Print | Product List | Glossary Off
Versions: 1 2 3 4 5 6 7 8 9 10 11 12 13 14 15 16 17 18 19 20 21 22 23 24 25 26 27 28 29 30 31 32 33 34 35 36 37 38 39 40 41 42 43 44 45 46 47 48 49 50

000
ASUS45 KABQ 011110
RWRNM
WEATHER ROUNDUP FOR NEW MEXICO
NATIONAL WEATHER SERVICE ALBUQUERQUE NM
500 AM MDT WED APR 01 2015

NOTE: "FAIR" MEANS FEW OR NO CLOUDS BELOW 12,000 FEET AGL WITH NO
       SIGNIFICANT WEATHER OR OBSTRUCTIONS TO VISION.

      THIS PRODUCT IS RELEASED AS TWO VERSIONS.  ONE VERSION NEAR
      THE TOP OF THE HOUR CONTAINING PRELIMINARY DATA FROM ALBUQUERQUE
      AND OTHER STATIONS.  A FINAL VERSION WITH ADDITIONAL DATA IS
      ISSUED ABOUT 10 MINUTES AFTER THE HOUR.

NMZ501-503-504-510>518-011200-
NORTHWEST PLATEAU/NORTHCENTRAL MOUNTAINS

CITY           SKY/WX    TMP DP  RH WIND       PRES   REMARKS
FARMINGTON     CLEAR     51  25  36 W5        29.94S
LOS ALAMOS     PTCLDY    52  24  33 W23G31    30.02S
SANTA FE       CLEAR     42  20  41 E7        29.99S
TAOS           PTCLDY    34  18  51 CALM      30.03R
ANGEL FIRE     FAIR      24  21  87 CALM      30.07S

$$
NMZ402-403-502-505>509-011200-
WESTCENTRAL MOUNTAINS/SOUTHWEST MOUNTAINS

CITY           SKY/WX    TMP DP  RH WIND       PRES   REMARKS
GALLUP         PTCLDY    42  25  50 S6        30.04S
GRANTS         MOCLDY    39  27  60 SE3       30.06F
SILVER CITY    CLEAR     48  37  66 N9        30.05S

$$
NMZ407-409-411-412-011200-
SOUTHERN DESERTS

CITY           SKY/WX    TMP DP  RH WIND       PRES   REMARKS
LORDSBURG      FAIR      45  39  81 CALM      30.01F
DEMING         CLEAR     49  42  77 SW8       30.00F
LAS CRUCES     CLEAR     53  43  69 W14       29.97F
HOLLOMAN AFB   CLEAR     56  41  57 SW8       29.94S
ALAMOGORDO     CLEAR     55  41  58 S8        29.96S
T OR C         CLEAR     52  38  58 SW6       29.96F

$$
NMZ519>523-011200-
CENTRAL VALLEYS/CENTRAL HIGHLANDS

CITY           SKY/WX    TMP DP  RH WIND       PRES   REMARKS
ALBUQUERQUE    CLEAR     51  27  39 SE12      29.98F
DOUBLE EAGLE   CLEAR     40  23  49 S5        30.00S
MORIARTY ARPT  FAIR      34  24  65 NW3       30.02S
CLINES CORNERS CLEAR     43  29  57 W12       30.01S
BELEN          FAIR      52  26  35 SE3       29.98S
SOCORRO        FAIR      46  35  65 SW3       29.98F

$$
NMZ524>526-539-540-011200-
SOUTHCENTRAL MOUNTAINS

CITY           SKY/WX    TMP DP  RH WIND       PRES   REMARKS
RUIDOSO        CLEAR     46  32  57 NW8       30.06S

$$
NMZ527>531-011200-
NORTHEAST HIGHLANDS/NORTHEAST PLAINS

CITY           SKY/WX    TMP DP  RH WIND       PRES   REMARKS
LAS VEGAS      CLEAR     40  20  44 SW6       29.97F
RATON          CLEAR     36  21  54 NE6       29.92S WCI  31
CLAYTON        CLEAR     51  25  36 W10       29.83F

$$
NMZ532>537-011200-
EASTCENTRAL PLAINS

CITY           SKY/WX    TMP DP  RH WIND       PRES   REMARKS
TUCUMCARI      CLEAR     48  34  58 SW13      29.83S
CANNON AFB     CLEAR     51  40  64 NW8       29.86F
CLOVIS AIRPORT CLEAR     48  39  71 W10       29.86F

$$
NMZ028-029-538-011200-
SOUTHEAST PLAINS

CITY           SKY/WX    TMP DP  RH WIND       PRES   REMARKS
ROSWELL        CLEAR     50  40  68 SE3       29.85F
ARTESIA        CLEAR     57  43  58 E7        29.86R
CARLSBAD       CLEAR     55  43  63 SE7       29.85S
HOBBS          PTCLDY    48  41  76 S7        29.91R


$$


USA.gov is the U.S. government's official web portal to all federal, state and local government web resources and services.